Visibility
0.6 0.0 0.1 0.0 0.0 0.0 0.0 0.1 0.3 0.1 0.1 0.1 0.4 0.5 0.2 10.8 15.0 15.0 13.8 15.0 15.0 15.0 15.0 8.0 0.1 0.3 15.0 15.0 15.0 15.0 15.0 15.0 15.0 15.0 15.0 13.0 6.0 7.1 12.8 4.1 6.0 6.2 13.5 15.0
0.0 0.1 5.2 0.1 0.1 0.1 0.0 0.0 0.1 0.5 0.0 0.1 0.1 1.6 8.4 1.7 1.6 0.1 0.0 15.0 15.0 15.0 15.0 0.5 0.1 0.0 0.4 15.0 15.0 15.0 15.0 15.0 15.0 10.3 14.9 15.0 8.1 5.4 7.6 3.2 5.7 15.0 8.4 15.0
0.1 0.0 1.6 1.0 0.1 0.1 0.4 0.2 0.2 0.0 0.0 0.1 12.0 3.7 0.2 0.4 0.2 0.1 0.0 15.0 6.1 4.3 10.3 5.0 0.1 1.4 0.2 15.0 15.0 15.0 15.0 14.8 15.0 15.0 15.0 15.0 3.8 5.2 3.4 0.4 3.3 15.0 15.0 7.1
0.1 8.3 0.3 0.0 0.1 11.4 3.5 0.1 8.4 0.2 0.1 0.2 0.4 0.1 0.3 0.5 0.5 0.1 0.1 15.0 15.0 15.0 15.0 15.0 15.0 15.0 9.2 15.0 15.0 15.0 5.3 6.9 15.0 14.9 9.7 14.6 6.7 15.0 10.3 13.2 1.7 6.1 14.6 15.0
0.1 7.5 0.1 12.3 2.9 0.9 2.3 0.0 0.0 0.2 0.0 0.2 0.2 15.0 4.0 1.2 1.5 0.3 4.6 15.0 15.0 15.0 15.0 15.0 15.0 15.0 15.0 15.0 15.0 15.0 0.2 0.2 2.2 9.2 0.9 15.0 0.2 1.1 3.3 2.3 5.6 1.1 13.8 15.0
1.9 1.3 0.3 1.5 15.0 15.0 15.0 0.1 0.0 1.1 0.4 5.7 11.4 7.5 0.3 15.0 15.0 15.0 15.0 15.0 15.0 15.0 15.0 15.0 15.0 15.0 15.0 14.4 15.0 3.3 0.2 0.1 0.1 0.4 0.1 0.1 0.1 0.1 0.1 0.8 0.6 2.3 1.7 10.6
6.5 15.0 8.9 8.3 15.0 15.0 13.3 0.1 0.0 7.2 15.0 15.0 1.8 1.0 5.5 15.0 15.0 15.0 15.0 15.0 15.0 15.0 15.0 15.0 15.0 15.0 15.0 1.8 0.1 14.0 14.8 0.8 0.2 0.2 0.2 0.1 1.0 0.2 0.2 0.2 0.5 2.1 0.3 2.0
15.0 15.0 10.1 15.0 13.8 3.4 0.0 0.0 0.2 5.3 14.7 15.0 9.8 11.7 15.0 15.0 15.0 15.0 15.0 15.0 15.0 15.0 15.0 15.0 15.0 15.0 15.0 0.9 4.5 12.0 15.0 15.0 15.0 4.2 1.1 1.4 1.2 0.6 0.4 0.3 0.3 0.5 0.3 0.7
0.5 0.8 0.2 0.3 0.0 0.3 15.0 13.5 15.0 15.0 15.0 15.0 15.0 15.0 15.0 15.0 15.0 15.0 15.0 15.0 15.0 15.0 15.0 15.0 15.0 15.0 11.1 0.5 15.0 15.0 15.0 15.0 15.0 15.0 12.1 3.7 3.8 14.3 2.9 0.4 0.3 0.4 1.2 0.7
0.6 0.1 0.4 2.6 15.0 15.0 15.0 15.0 15.0 15.0 15.0 15.0 15.0 15.0 15.0 15.0 15.0 15.0 15.0 15.0 15.0 15.0 15.0 15.0 15.0 15.0 6.9 4.7 15.0 15.0 2.4 13.5 15.0 15.0 15.0 15.0 15.0 9.5 1.4 1.2 5.8 2.4 0.9 0.3
0.4 0.3 0.6 4.7 10.8 15.0 15.0 15.0 15.0 15.0 15.0 15.0 15.0 15.0 15.0 15.0 15.0 15.0 15.0 15.0 15.0 15.0 15.0 15.0 15.0 15.0 15.0 8.4 14.9 15.0 15.0 4.2 5.6 15.0 15.0 15.0 2.7 0.7 0.9 0.1 0.3 0.8 0.3 1.0
0.7 12.2 10.8 0.3 15.0 15.0 15.0 15.0 15.0 15.0 15.0 15.0 15.0 15.0 15.0 15.0 15.0 15.0 15.0 15.0 15.0 15.0 15.0 15.0 15.0 15.0 15.0 15.0 4.0 15.0 14.7 4.3 0.8 0.3 15.0 15.0 15.0 13.1 6.8 9.2 11.4 1.2 2.4 2.4
0.3 15.0 15.0 15.0 15.0 15.0 15.0 15.0 15.0 15.0 15.0 15.0 15.0 15.0 15.0 15.0 15.0 15.0 15.0 15.0 15.0 15.0 15.0 15.0 15.0 15.0 15.0 10.0 15.0 2.5 3.3 1.2 5.2 5.3 0.5 1.2 15.0 15.0 5.1 8.0 10.1 3.7 4.8 3.2
15.0 15.0 8.2 14.6 15.0 15.0 15.0 15.0 15.0 15.0 15.0 15.0 15.0 15.0 15.0 15.0 15.0 15.0 15.0 15.0 15.0 15.0 15.0 15.0 15.0 11.3 7.0 3.5 5.6 3.3 4.9 1.4 0.5 0.8 2.1 1.4 3.8 3.3 5.2 4.2 3.1 2.3 1.1 1.3
15.0 15.0 15.0 15.0 15.0 15.0 15.0 15.0 15.0 15.0 15.0 15.0 15.0 15.0 15.0 15.0 15.0 15.0 15.0 15.0 15.0 15.0 15.0 15.0 15.0 15.0 15.0 15.0 6.2 0.6 7.2 3.3 2.6 2.4 0.4 2.2 5.9 7.1 5.0 5.4 1.5 0.9 4.2 11.3
15.0 15.0 15.0 15.0 15.0 15.0 15.0 15.0 15.0 15.0 15.0 15.0 15.0 15.0 15.0 15.0 15.0 15.0 15.0 15.0 15.0 7.9 15.0 15.0 15.0 15.0 15.0 15.0 15.0 2.8 2.7 13.2 11.8 5.7 2.1 0.8 4.7 5.4 7.3 2.9 3.2 1.9 1.2 0.2
15.0 15.0 15.0 15.0 15.0 15.0 15.0 15.0 15.0 15.0 15.0 15.0 15.0 15.0 15.0 15.0 15.0 15.0 15.0 7.6 13.8 14.7 15.0 15.0 15.0 15.0 15.0 7.8 8.1 2.1 0.8 4.1 4.2 4.6 4.4 0.7 1.1 4.1 4.1 3.2 1.0 1.1 0.5 0.4
15.0 15.0 15.0 15.0 15.0 15.0 15.0 15.0 15.0 15.0 15.0 15.0 15.0 15.0 15.0 14.8 7.3 11.3 4.1 15.0 15.0 15.0 15.0 15.0 15.0 15.0 15.0 15.0 11.9 4.1 4.0 4.1 3.8 1.4 4.1 4.1 0.7 0.9 3.6 3.2 1.0 0.7 0.6 1.7
15.0 15.0 15.0 15.0 15.0 15.0 15.0 15.0 15.0 15.0 13.5 12.3 15.0 15.0 13.4 8.8 15.0 14.7 4.0 15.0 15.0 15.0 13.6 15.0 15.0 15.0 15.0 15.0 13.7 13.4 4.3 4.0 1.6 3.3 1.7 7.2 2.7 0.4 0.9 1.4 3.2 4.1 4.2 4.3
15.0 15.0 15.0 15.0 15.0 15.0 15.0 15.0 15.0 15.0 7.2 15.0 13.6 14.1 15.0 14.6 6.3 4.1 5.2 15.0 10.6 3.5 8.3 15.0 15.0 15.0 15.0 15.0 3.8 15.0 13.3 3.8 2.1 0.8 0.4 0.6 1.7 1.4 1.3 1.5 3.0 1.9 4.1 4.1
15.0 15.0 15.0 15.0 4.1 13.7 15.0 15.0 15.0 15.0 15.0 15.0 15.0 15.0 13.0 13.4 4.1 12.9 2.8 4.2 15.0 8.9 15.0 15.0 15.0 15.0 13.3 12.6 14.8 4.8 4.4 5.0 5.3 1.9 0.8 0.3 0.3 0.6 2.0 2.4 1.0 0.8 0.8 1.5
15.0 14.6 11.1 15.0 14.7 4.1 5.1 15.0 15.0 11.7 15.0 11.8 4.2 4.1 11.8 15.0 3.5 15.0 15.0 13.4 15.0 14.8 15.0 15.0 15.0 11.5 11.9 5.2 12.2 4.1 4.2 5.6 4.1 10.3 3.7 2.5 0.5 0.4 0.4 0.4 0.5 0.5 0.8 0.9
15.0 15.0 13.6 10.9 10.9 13.0 6.0 6.4 10.4 15.0 15.0 15.0 9.9 15.0 15.0 14.6 4.0 6.7 6.0 15.0 15.0 15.0 14.9 15.0 15.0 14.9 6.0 4.1 10.3 4.2 15.0 15.0 7.3 3.5 3.7 3.0 1.2 4.1 1.5 0.9 2.5 6.8 1.5 1.8
14.8 15.0 15.0 15.0 4.9 6.9 5.7 14.3 14.9 15.0 15.0 15.0 15.0 15.0 15.0 3.9 1.9 5.3 15.0 15.0 15.0 15.0 6.4 15.0 15.0 15.0 4.1 13.4 10.5 5.1 4.1 15.0 9.2 4.7 15.0 4.4 2.7 2.6 4.0 4.4 12.1 4.1 2.8 0.9
15.0 15.0 13.0 3.2 8.3 15.0 15.0 15.0 15.0 11.1 15.0 15.0 15.0 15.0 15.0 15.0 15.0 13.0 5.6 6.6 6.3 15.0 12.0 6.8 15.0 10.8 6.2 4.1 15.0 11.0 3.0 3.0 1.6 3.6 4.1 4.0 3.1 7.0 3.1 8.1 15.0 13.2 4.2 3.4
15.0 15.0 10.5 15.0 15.0 15.0 15.0 10.9 3.5 8.3 6.2 3.5 6.6 4.1 1.5 13.1 15.0 15.0 10.6 10.1 10.1 15.0 10.1 9.2 4.2 4.1 1.8 7.8 15.0 15.0 6.2 8.4 4.1 4.1 4.4 11.9 5.1 1.1 1.2 9.1 7.6 3.3 4.1 4.1
14.7 15.0 14.0 7.5 15.0 15.0 11.3 12.6 4.9 4.1 4.1 4.1 4.5 3.8 2.3 1.3 15.0 12.8 8.2 12.6 7.5 4.1 4.3 4.1 10.8 4.1 4.1 4.1 8.9 15.0 14.9 13.2 4.8 4.1 4.4 6.4 14.8 4.0 1.3 1.1 1.7 3.5 4.2 4.3